Theta_e
277 277 278 278 278 277 277 277 277 277 277 276 276 276 276 276 276 276 275 275 275 274 274 274 274 274 274 273 273 274 274 274 274 274 274 274 275 275 276 277 277 278 278 279 280 282 283 285 286 287 287 287 287 287 288 288 289 290 290 290 291 291 291
276 276 277 277 277 277 277 276 276 276 275 275 275 275 276 276 275 275 274 274 274 274 274 273 273 273 273 273 273 273 273 273 273 273 273 273 274 275 275 276 276 277 277 278 278 279 281 282 285 286 287 287 287 287 287 288 288 288 289 289 289 290 290
275 275 276 276 277 277 277 277 276 276 275 275 275 275 275 275 274 274 274 274 273 273 273 273 273 273 273 272 272 272 273 273 273 273 273 273 274 274 275 275 275 276 276 277 277 278 279 280 283 285 286 287 287 287 287 287 288 288 288 289 289 289 290
274 274 275 275 276 276 277 277 276 275 274 274 274 274 274 274 273 273 273 273 273 273 272 272 272 272 272 272 272 272 272 272 272 272 273 273 273 273 274 274 274 275 275 276 276 277 278 279 281 283 285 286 286 287 287 287 287 288 288 289 289 290 290
273 274 274 274 275 275 275 276 275 274 274 273 273 273 273 273 272 272 272 272 272 272 272 272 272 272 272 272 272 271 271 271 272 272 272 272 272 273 273 273 273 274 274 275 275 276 277 278 280 281 283 284 285 286 287 287 287 288 288 288 289 289 289
272 273 273 273 273 274 274 274 274 273 273 272 272 272 272 272 272 272 272 272 272 272 271 271 271 271 271 271 271 270 270 271 271 271 271 271 272 272 272 272 273 273 274 274 275 275 276 277 279 280 282 283 284 285 285 286 287 288 287 287 288 288 288
271 272 272 272 272 273 273 273 273 272 272 272 272 271 271 271 271 271 271 271 271 271 271 271 271 271 271 271 270 270 270 270 270 270 271 271 271 271 271 271 272 272 273 273 274 275 276 277 278 280 281 282 283 284 284 285 286 287 287 287 287 287 287
270 270 271 271 271 271 271 271 271 271 271 271 271 271 271 271 271 271 271 271 271 271 271 270 270 270 270 270 270 270 270 270 270 270 271 271 271 271 271 271 271 271 272 272 273 274 275 276 277 279 280 281 282 283 284 284 284 285 286 286 286 286 287
269 269 270 270 270 270 270 270 270 270 270 270 270 271 271 271 271 271 271 271 270 270 270 270 269 269 269 269 270 270 270 270 270 270 270 270 270 270 270 271 271 271 271 271 272 273 274 275 276 277 279 280 281 282 283 284 283 283 284 285 286 286 286
268 269 269 269 269 269 269 269 270 270 270 270 270 270 270 270 270 270 270 270 269 269 269 269 269 269 269 269 269 270 270 269 269 269 270 270 270 270 270 270 270 270 271 271 271 272 273 274 275 276 277 278 279 280 282 282 282 282 282 284 284 284 284
268 268 268 268 268 268 269 269 269 269 269 269 269 269 269 269 269 269 269 268 268 268 268 268 268 268 268 268 269 269 269 269 269 269 269 269 269 269 269 269 269 269 270 270 270 271 272 272 273 274 275 276 277 278 279 280 280 280 281 281 282 283 283
267 267 267 267 267 267 267 268 268 268 269 269 269 268 268 268 268 268 268 268 268 268 268 268 268 268 268 268 268 269 269 269 269 269 269 269 268 268 269 269 269 269 269 269 269 270 270 271 272 273 274 275 276 276 277 277 278 279 279 279 280 281 282
266 266 266 266 266 266 267 267 267 267 267 268 268 268 268 268 268 268 268 268 268 268 268 268 268 268 268 268 268 269 269 269 268 268 268 268 268 268 268 268 268 268 268 268 268 269 269 270 271 272 273 273 274 275 275 276 276 277 277 278 278 279 280
266 266 266 266 266 266 266 267 267 267 267 267 267 267 267 267 268 268 268 268 268 268 268 268 268 268 268 268 268 268 268 268 268 268 268 268 268 268 267 267 267 267 267 267 267 268 268 269 269 270 271 272 273 274 274 275 275 276 276 277 277 278 278
266 266 266 266 265 266 266 266 266 266 266 267 267 267 267 267 267 267 267 267 267 267 267 268 268 268 268 268 268 268 268 268 268 267 267 267 267 267 267 266 266 266 266 266 267 267 267 268 268 269 270 271 272 272 273 273 274 275 275 276 276 276 277
265 265 265 265 265 265 265 266 266 266 266 266 267 267 266 266 267 267 267 267 267 267 267 267 267 267 267 267 267 267 267 267 267 267 267 267 266 266 266 266 266 266 266 266 266 267 267 267 267 268 269 270 270 271 271 272 273 273 274 274 275 275 276
265 265 264 265 265 265 265 266 266 266 266 266 266 266 266 266 266 266 266 266 266 267 267 267 267 267 267 267 267 267 267 267 267 266 266 266 266 265 265 265 265 265 265 265 266 266 267 267 267 267 267 268 268 269 270 270 271 272 272 273 273 273 274
265 264 264 264 265 265 265 266 266 266 266 266 266 266 266 266 266 266 266 266 266 266 266 267 267 267 267 267 266 266 267 266 266 266 266 266 265 265 265 265 265 265 265 265 265 266 266 266 266 266 266 267 267 268 268 269 270 270 271 271 271 271 272
264 264 264 264 265 265 265 265 265 266 266 266 267 267 266 266 266 266 266 266 266 266 266 266 266 266 266 266 266 266 266 266 266 266 266 265 265 265 265 265 265 265 265 264 265 265 265 265 265 265 266 266 266 267 267 268 268 269 270 270 270 270 270
264 264 264 264 265 265 265 265 265 265 266 266 267 267 267 267 266 266 266 266 266 266 266 266 266 266 265 265 265 266 266 266 266 266 265 265 265 265 265 264 264 264 264 264 264 264 264 264 264 265 265 265 266 266 267 267 268 268 269 269 269 269 269
264 264 264 264 264 265 265 265 265 265 265 266 266 266 266 266 266 266 266 265 265 265 265 265 265 265 265 265 265 265 265 265 265 265 265 265 265 264 264 264 263 263 264 263 263 264 264 264 264 264 264 265 265 266 266 267 267 268 268 268 268 269 269
264 264 264 264 264 264 264 265 265 265 265 266 266 266 266 266 265 265 265 265 265 265 264 264 264 264 265 265 265 265 265 264 264 265 265 264 264 264 264 263 263 263 263 263 263 263 263 263 263 264 264 264 265 265 266 266 266 267 267 267 268 268 268
264 264 264 264 264 264 264 264 265 264 265 265 265 265 265 265 265 265 264 264 264 264 264 264 264 264 264 265 265 265 265 264 263 264 264 264 264 263 263 263 262 262 262 262 263 263 263 263 263 263 264 264 264 265 265 265 265 266 266 267 267 267 267
264 264 264 264 264 264 264 264 264 264 264 264 264 264 264 264 264 264 264 264 264 264 264 264 263 263 264 264 265 265 264 264 263 263 263 263 263 263 262 262 262 262 262 262 262 262 262 263 263 263 263 263 264 264 264 264 265 265 266 266 266 266 266
264 264 264 264 263 263 264 264 264 264 264 264 264 263 263 263 264 264 263 263 263 263 263 263 263 262 263 264 264 264 264 264 263 263 263 263 263 262 262 262 262 262 262 262 262 262 262 262 262 262 263 263 263 263 264 264 264 265 265 265 265 266 266
264 264 264 264 263 263 263 263 264 264 264 264 264 263 263 263 263 263 263 263 263 263 263 262 262 262 262 263 263 263 263 263 263 263 263 262 262 262 262 261 261 261 262 262 262 262 262 262 262 262 262 262 263 263 263 264 264 264 265 265 265 265 266
264 263 263 263 263 263 263 263 263 263 263 263 264 263 263 263 263 263 263 262 262 262 262 262 261 261 261 262 262 262 262 263 263 262 262 262 261 261 261 261 261 261 261 262 262 261 261 261 262 262 262 262 263 263 263 263 264 264 264 265 265 265 265
263 263 263 263 263 263 263 263 263 263 263 263 263 263 263 263 262 262 262 262 261 261 261 261 261 261 261 261 261 262 262 262 262 261 261 261 261 261 261 261 261 261 261 261 261 261 261 261 261 262 262 262 263 263 263 263 264 264 264 264 265 265 265
263 263 263 263 263 263 262 262 262 262 262 263 263 263 262 262 262 262 261 261 261 261 260 260 260 260 260 260 261 261 261 261 261 261 261 261 261 261 261 261 261 261 261 261 261 261 261 261 262 262 262 263 263 263 263 263 264 264 264 264 264 265 265
263 263 262 262 262 262 262 262 262 262 262 262 262 262 262 262 262 261 261 261 261 260 260 260 260 260 260 260 260 260 260 260 261 261 261 261 261 261 261 261 261 261 261 261 261 261 261 262 262 262 262 262 262 262 263 263 263 263 263 264 264 264 264
262 262 262 262 262 262 262 262 262 262 262 262 262 263 263 262 262 262 261 261 261 260 260 260 260 260 260 260 260 260 260 261 261 261 261 261 261 261 261 261 261 261 261 261 261 261 261 262 262 262 262 262 262 262 262 262 263 263 263 263 264 264 264
262 263 262 262 262 262 262 262 262 262 262 262 263 264 263 263 263 262 261 261 261 261 260 260 260 260 260 260 260 261 261 261 261 261 261 261 260 260 261 261 261 261 261 261 261 261 261 261 261 261 262 262 262 262 262 262 263 263 263 263 263 264 264
262 262 262 262 262 262 262 262 262 262 262 262 262 263 263 262 262 262 261 261 261 261 260 260 260 260 260 260 260 261 261 261 261 261 261 261 260 261 261 260 260 260 260 260 261 261 261 261 261 261 261 261 262 262 262 262 263 263 263 263 263 263 263
262 261 261 261 261 261 261 261 262 262 262 261 261 261 261 261 261 261 261 261 261 261 260 260 260 261 261 261 261 261 261 261 261 261 261 261 261 261 260 260 260 260 260 260 260 260 261 261 261 261 261 262 262 262 262 262 262 262 263 263 262 263 263
262 261 261 261 261 261 261 261 261 261 261 261 261 260 260 260 260 261 261 261 261 261 260 260 261 261 261 261 261 261 261 261 261 261 261 261 261 261 260 260 260 260 260 260 260 261 261 261 261 261 261 262 262 262 262 262 262 262 262 262 262 262 262
262 262 261 261 261 261 261 261 261 261 261 261 261 260 260 260 260 261 261 261 261 261 261 260 261 261 261 261 261 261 261 261 261 261 261 261 261 261 261 260 260 260 260 260 261 261 261 261 261 261 262 262 262 262 262 262 262 262 262 262 263 263 262
Wind_Speed
24 23 23 24 25 26 26 28 29 29 29 28 27 27 26 27 27 26 26 26 27 27 27 27 28 28 28 27 27 26 25 24 24 25 26 23 19 18 17 16 18 22 29 31 30 30 29 22 19 21 23 25 25 24 23 23 22 22 23 23 24 25 25
25 25 24 24 24 24 25 27 29 29 29 28 27 26 26 26 26 26 26 27 27 27 27 27 28 29 29 28 27 27 25 25 24 23 23 20 16 17 16 15 17 20 23 27 26 28 31 28 23 21 20 21 23 23 22 23 24 24 25 25 25 25 25
25 26 25 24 24 24 24 25 27 28 29 29 28 27 26 26 25 25 26 27 27 27 27 27 29 30 30 29 28 27 25 24 23 19 18 18 17 17 18 17 18 19 22 25 24 24 26 27 27 26 22 19 20 22 23 22 23 23 23 23 24 24 24
24 26 26 25 24 24 24 24 25 26 28 28 27 27 26 25 25 26 26 27 28 28 27 28 30 31 31 30 28 27 24 22 20 17 16 17 16 17 20 21 21 21 21 23 24 24 24 23 24 29 28 24 21 22 23 23 22 22 23 23 24 24 24
24 25 25 25 24 24 24 24 24 25 26 27 26 25 25 25 25 26 27 28 29 29 29 30 31 32 31 30 28 26 23 19 18 18 18 18 20 20 22 24 24 24 23 23 25 26 23 21 22 25 29 29 27 24 23 24 24 23 23 24 25 25 25
24 24 24 24 23 23 23 23 24 25 25 25 24 24 24 24 25 26 28 29 30 30 31 32 33 33 31 29 26 24 21 18 18 19 19 20 23 23 24 26 25 24 24 25 25 24 22 21 21 21 23 26 27 26 24 24 25 25 25 25 26 26 26
23 22 22 22 21 21 22 22 22 23 23 24 24 24 25 25 26 28 30 31 32 33 34 34 33 32 30 26 22 20 19 18 19 19 19 20 23 23 23 24 23 22 23 23 22 20 20 20 19 19 21 23 26 27 24 22 23 24 26 26 26 25 24
21 21 20 19 19 20 20 21 21 22 23 24 25 25 27 28 29 31 32 34 35 36 35 33 30 28 25 21 19 18 17 18 19 19 20 21 23 23 23 22 21 21 21 19 19 17 17 19 18 17 19 22 24 24 22 21 20 22 25 25 25 24 23
22 22 22 21 21 21 22 22 23 24 25 26 27 28 29 31 32 34 35 36 36 35 31 26 23 22 20 18 17 16 17 20 20 18 19 20 21 21 21 21 22 21 20 18 18 16 15 17 18 15 15 18 21 20 21 22 20 20 23 24 24 23 22
25 26 26 26 26 26 27 27 27 28 28 29 30 31 32 33 34 34 34 33 31 29 25 21 19 19 18 18 17 16 18 22 21 18 17 18 19 20 21 22 23 23 22 21 19 16 14 17 18 16 13 14 15 17 21 22 19 18 21 24 25 24 23
29 29 29 29 29 29 30 31 31 31 31 31 30 30 30 30 30 29 27 26 25 24 20 17 18 19 18 18 18 17 18 21 20 18 18 18 18 20 21 22 23 24 24 23 20 17 16 18 20 18 15 13 12 13 15 17 17 18 20 22 23 24 24
31 30 29 28 29 29 29 30 30 31 31 31 30 27 25 24 24 23 21 20 21 20 18 16 18 20 18 17 16 15 16 18 18 18 18 19 19 20 20 20 21 23 23 22 20 18 19 20 20 19 17 13 12 11 10 11 12 16 20 20 21 23 24
29 28 27 27 27 27 28 28 27 27 28 27 26 24 22 21 21 21 21 21 22 22 20 18 18 19 17 16 15 16 17 18 19 19 19 20 20 20 20 19 19 20 21 20 18 18 19 19 19 20 19 15 12 11 9 8 8 10 15 17 17 19 20
26 26 25 25 25 26 26 25 24 24 24 24 23 22 20 20 21 22 23 24 24 23 21 18 18 17 17 16 16 17 18 19 19 20 20 20 20 19 18 17 16 17 19 20 19 18 18 18 18 20 20 18 15 13 11 9 7 7 9 11 13 14 15
26 25 25 24 24 25 25 23 21 21 22 21 21 20 18 19 20 20 21 22 21 19 17 15 14 14 15 16 17 17 18 20 20 20 19 19 18 17 16 15 15 17 17 18 18 17 17 17 17 19 20 18 14 14 14 13 11 10 9 9 10 10 12
27 26 24 23 22 23 23 21 19 19 19 19 19 17 16 16 17 18 19 19 17 15 14 14 13 14 15 16 17 19 19 19 19 18 17 18 17 17 16 15 16 17 16 16 17 18 18 17 17 18 19 17 13 12 13 13 13 13 12 12 12 12 12
24 22 21 20 20 20 21 18 16 16 17 17 16 14 13 14 15 15 16 15 12 11 12 14 15 16 16 17 18 18 18 17 17 15 15 16 17 16 16 17 18 19 18 18 19 20 20 19 18 19 19 17 15 13 12 13 14 14 14 14 14 14 16
20 19 19 19 18 18 18 16 14 14 14 12 11 10 12 13 14 14 13 12 11 11 12 14 15 15 16 16 16 15 14 16 17 16 15 16 16 17 18 20 21 21 20 21 22 22 23 22 20 20 20 19 18 16 14 15 15 15 15 14 13 13 17
18 19 19 19 17 16 15 14 11 9 8 7 7 9 12 13 13 12 12 11 11 11 12 13 13 13 13 13 12 11 13 15 17 17 18 18 18 19 21 22 23 22 21 21 23 24 24 24 23 22 21 20 19 18 16 15 15 15 14 14 14 14 16
18 19 19 18 16 14 12 10 6 3 2 5 7 9 10 12 12 10 10 10 9 10 10 11 11 11 11 11 9 9 13 16 16 17 19 20 20 20 21 21 20 19 18 19 21 23 24 24 24 23 21 20 18 16 14 13 12 13 13 13 14 14 14
18 20 18 15 13 11 8 6 2 3 2 3 6 6 5 7 8 7 7 8 8 9 9 10 11 11 11 10 7 8 13 17 18 19 20 21 20 18 18 19 18 17 16 16 16 18 20 21 21 19 18 16 14 12 11 10 10 11 11 12 13 13 14
18 19 17 13 10 8 6 4 5 6 3 1 4 6 5 6 7 7 7 8 8 9 9 10 11 12 12 11 9 10 13 15 18 20 20 19 17 17 19 19 17 14 13 13 13 14 14 15 15 14 13 12 10 9 9 8 8 9 10 10 11 11 12
18 18 15 12 9 7 6 6 7 8 5 2 2 5 6 7 8 8 8 7 7 8 10 12 14 14 12 8 7 12 14 14 16 17 14 14 17 20 22 20 16 13 12 11 11 11 11 10 10 10 9 9 8 8 7 7 7 7 8 9 9 9 10
17 16 14 10 8 7 7 8 8 9 8 6 4 1 3 5 6 6 7 9 11 14 17 18 17 14 11 10 14 18 20 19 17 15 13 15 20 22 22 18 14 11 10 9 9 8 8 7 7 6 7 7 6 6 6 6 6 7 7 8 8 8 8
17 15 12 10 8 8 8 8 9 10 11 11 10 9 10 11 11 12 14 17 19 20 21 19 15 12 14 16 18 20 21 20 18 16 17 20 22 22 19 14 11 9 7 6 6 5 4 4 4 4 5 5 4 4 5 5 6 6 7 7 7 7 7
16 14 12 11 9 9 9 9 10 11 12 14 15 15 17 18 19 19 20 21 20 20 18 16 12 13 16 18 19 20 20 19 19 20 21 23 22 19 14 10 7 6 5 4 3 2 2 2 2 3 3 4 4 5 5 5 6 6 6 6 6 6 6
14 12 12 11 10 10 9 8 9 10 12 14 16 17 19 20 20 19 18 18 17 15 13 12 11 13 17 20 21 21 21 21 21 22 22 21 17 13 9 6 4 3 2 2 2 1 1 2 2 3 3 4 5 5 6 5 5 5 5 5 5 4 4
13 11 11 11 10 9 9 8 9 10 11 13 14 15 16 16 15 14 13 12 11 10 9 9 10 12 15 18 20 21 21 21 21 20 18 15 11 8 5 4 3 2 2 2 2 2 2 3 3 4 4 4 5 5 5 4 4 4 4 4 3 3 3
12 10 9 10 10 9 9 9 9 10 11 11 11 11 11 11 9 8 7 7 7 7 7 8 9 10 12 14 16 18 18 17 16 14 11 8 6 4 3 2 2 2 2 2 2 3 3 4 4 4 4 4 4 4 4 3 3 3 3 2 2 2 2
10 9 8 9 10 10 10 10 9 9 9 8 7 8 8 6 6 5 4 5 8 9 7 7 7 8 9 10 11 12 11 11 10 8 6 4 3 3 2 2 2 3 3 3 3 4 4 4 4 4 3 3 3 3 2 2 2 2 2 2 2 2 2
8 10 11 11 12 12 13 12 9 8 7 7 11 14 14 10 7 6 5 6 9 10 9 8 7 7 7 8 8 8 7 7 6 5 4 3 3 2 3 3 3 3 3 3 4 4 5 4 4 4 3 3 3 2 2 2 2 2 2 2 2 1 1
8 10 12 12 12 12 13 11 8 9 8 10 11 15 17 15 12 9 8 9 10 11 10 8 7 7 6 6 6 6 6 6 5 5 4 4 4 4 3 3 3 3 3 3 3 4 4 4 4 4 3 3 3 2 2 2 3 3 2 2 1 1 1
14 14 14 14 12 11 12 10 9 10 8 8 7 9 12 13 13 12 11 12 11 11 9 8 7 6 6 5 6 6 6 6 6 5 5 5 5 4 4 3 3 3 3 3 3 3 3 3 3 4 4 4 4 4 4 3 3 3 3 2 2 3 4
16 17 17 17 15 14 15 15 13 12 8 5 6 10 13 14 14 14 14 13 12 10 8 7 6 6 6 6 6 7 7 7 6 6 5 5 4 4 4 4 3 3 3 3 3 3 3 4 4 4 5 5 4 4 4 3 3 3 3 3 4 5 6
16 17 19 20 20 19 20 19 18 17 14 11 11 16 19 19 19 18 17 15 12 10 8 7 6 6 6 7 7 8 7 7 7 6 5 5 4 4 4 4 4 4 4 3 3 4 5 5 5 5 5 5 5 5 4 4 3 3 3 4 4 4 5
15 16 18 20 21 21 21 21 20 20 19 17 17 19 22 23 22 21 19 17 14 11 9 8 7 7 7 8 8 8 8 7 7 6 6 5 4 4 4 4 4 4 4 4 4 4 5 6 6 5 5 5 5 5 4 3 3 3 3 3 4 4 5
Wind_Direction
312 310 306 298 289 280 274 271 270 270 270 270 271 273 277 282 285 289 293 296 297 300 301 302 303 304 306 309 307 302 298 291 284 282 282 284 286 286 287 287 284 284 283 278 271 267 267 269 277 282 277 274 272 266 264 265 262 257 256 257 258 258 257
309 308 307 304 298 288 277 271 268 267 267 267 268 270 274 278 281 285 290 292 295 297 299 300 301 302 305 308 305 299 295 289 283 281 280 280 284 287 287 289 290 290 290 291 287 279 272 265 262 270 278 276 271 267 264 263 261 258 256 257 259 260 259
305 304 301 298 297 292 285 278 271 267 265 265 267 269 272 276 279 283 287 289 292 295 297 299 299 301 304 306 302 295 291 287 282 277 277 279 282 285 285 286 289 290 292 295 296 292 286 275 261 258 268 274 269 268 269 265 262 260 257 256 256 256 257
303 301 298 294 290 288 286 281 275 268 264 264 267 269 272 275 278 282 285 288 291 294 296 298 298 299 302 302 298 290 284 282 278 272 275 281 282 282 284 285 285 286 289 295 297 295 293 289 272 258 257 263 266 267 267 264 262 259 255 253 252 250 251
301 299 297 293 289 285 282 277 271 266 263 265 267 270 273 276 279 282 286 289 291 293 295 297 297 298 299 297 291 283 278 273 269 268 273 278 281 283 284 284 283 284 287 290 293 296 297 294 284 268 260 261 265 266 265 260 257 257 255 253 252 251 250
300 298 296 294 291 286 282 276 270 266 266 268 270 273 276 279 283 286 289 290 292 293 295 297 297 295 294 290 283 277 273 266 264 270 273 274 278 282 284 284 284 285 286 286 289 295 297 294 287 275 267 263 262 265 266 261 254 253 254 254 254 253 252
303 300 299 297 293 288 281 276 272 271 271 273 275 277 280 283 286 288 289 290 291 293 295 296 293 290 286 281 273 271 270 266 268 272 271 272 278 284 287 289 289 289 288 288 291 294 296 294 286 272 263 260 260 263 264 259 253 249 250 252 253 251 249
302 299 297 295 292 287 280 277 275 275 276 277 278 279 282 285 287 287 288 289 290 292 293 291 287 282 279 271 264 266 267 265 267 269 269 274 280 283 287 290 292 294 294 293 295 296 296 295 289 274 259 253 255 257 251 244 242 241 243 246 248 245 242
292 290 288 286 285 283 280 278 277 277 278 279 280 281 282 283 284 284 285 287 288 290 289 285 278 273 268 260 259 261 261 264 270 272 272 275 279 282 288 292 293 296 298 297 297 297 297 295 291 286 270 253 243 238 235 232 229 227 230 234 235 232 229
293 290 287 284 281 279 278 278 277 277 279 280 282 284 285 285 286 287 288 289 289 290 289 282 272 268 262 254 254 255 256 265 275 277 273 275 281 286 291 294 295 296 297 297 297 296 294 290 288 289 288 269 246 233 228 225 221 217 216 217 219 217 212
296 293 291 288 285 281 278 277 276 277 278 279 282 284 286 286 286 286 287 288 289 292 293 284 275 274 269 261 258 256 256 263 270 272 274 278 284 288 291 294 295 295 294 293 293 290 283 280 281 284 288 284 269 251 233 223 214 206 202 203 205 203 199
297 295 292 290 288 285 281 278 277 277 277 277 279 280 282 281 281 280 278 277 278 280 282 278 274 274 270 264 262 258 256 262 267 273 279 284 287 289 290 290 289 288 289 290 289 285 278 275 276 277 278 280 279 271 254 237 217 201 198 198 197 197 194
297 295 294 292 291 289 285 282 280 277 276 276 276 277 278 278 276 274 272 271 270 271 273 272 271 270 267 264 262 258 258 265 272 278 283 285 287 288 287 282 278 279 282 284 283 281 277 274 271 270 270 272 275 277 269 256 237 214 206 203 200 198 194
299 297 296 296 294 292 288 285 284 281 279 278 276 275 277 277 273 270 270 270 270 271 271 267 263 263 261 257 256 257 262 269 275 279 281 282 284 284 281 277 275 277 279 281 280 278 276 274 272 270 267 265 267 271 273 271 261 243 226 215 211 208 200
303 301 300 299 297 294 291 288 288 285 281 278 274 273 275 274 270 270 271 271 271 271 266 259 256 255 254 256 259 263 269 274 276 277 277 278 278 275 270 273 283 287 284 281 278 273 270 270 269 268 267 267 267 267 269 271 266 258 249 235 228 221 211
305 304 303 302 299 296 293 292 291 286 281 278 274 273 273 270 267 269 272 272 272 266 255 252 256 258 259 263 267 270 273 274 273 272 271 270 269 267 268 279 295 299 289 279 274 271 269 268 269 272 274 276 278 273 268 267 264 260 259 255 253 250 241
306 306 306 306 304 300 297 297 294 287 282 280 276 270 265 265 266 270 271 267 264 257 250 251 255 256 259 263 266 272 275 274 272 268 262 260 261 265 275 287 298 299 290 280 277 277 277 275 274 276 279 281 280 276 270 266 261 257 256 258 262 264 261
307 309 311 311 308 304 301 300 298 292 287 285 280 264 255 259 264 267 267 263 259 255 251 251 253 256 262 267 270 273 273 269 268 264 257 259 263 270 281 291 295 293 286 279 277 277 277 276 274 274 276 278 278 276 272 267 264 259 256 255 252 253 260
310 312 314 313 310 305 302 303 303 295 295 302 288 260 250 255 259 260 261 259 257 255 252 254 257 261 269 273 271 275 277 270 264 260 258 260 266 274 283 290 291 287 281 274 270 270 271 272 273 275 276 278 279 278 274 269 263 259 254 250 243 240 249
311 313 314 312 309 305 301 304 301 285 316 331 300 268 254 252 251 250 253 249 246 251 254 257 263 269 276 277 267 268 279 271 256 252 256 259 267 278 287 293 291 285 279 271 265 264 266 268 271 275 278 280 279 277 272 265 258 252 245 241 238 233 235
310 312 313 310 306 302 296 289 245 175 96 352 304 277 252 240 235 233 239 240 242 253 258 262 269 272 275 276 261 250 264 262 251 250 256 262 269 281 293 299 296 287 278 272 266 263 263 266 270 273 276 277 274 270 266 258 249 243 237 234 234 232 232
310 311 311 307 301 294 279 246 194 173 151 10 295 278 257 241 240 241 246 249 252 259 263 268 278 281 284 287 270 240 243 253 254 256 260 267 279 294 303 304 300 289 279 273 269 266 264 264 267 269 269 269 265 260 255 248 239 233 229 227 227 226 227
309 310 308 302 295 283 261 232 205 199 198 204 304 305 286 264 252 245 242 244 249 260 271 282 291 292 290 282 235 211 215 232 247 255 265 282 298 306 308 305 298 288 280 274 269 266 264 262 261 260 258 256 252 247 240 232 223 216 213 214 213 212 212
307 307 303 295 286 272 255 236 217 212 212 202 183 194 254 244 237 235 242 256 269 279 285 290 291 283 261 226 207 208 216 228 241 256 277 294 302 305 304 300 294 285 276 269 264 259 256 254 249 245 242 239 236 232 222 210 202 197 194 194 193 192 192
301 300 295 287 275 263 257 248 234 223 219 215 212 218 236 247 256 266 273 279 284 288 290 289 282 260 240 230 224 224 228 236 249 267 284 293 299 300 298 294 288 280 270 259 252 246 243 242 234 229 229 224 217 209 196 186 181 178 177 176 175 174 174
294 292 286 278 268 260 258 256 249 240 234 232 235 242 251 261 269 275 280 285 288 288 287 281 265 240 231 232 232 234 240 249 261 274 284 290 294 294 291 287 279 271 258 237 218 209 219 226 221 220 213 199 190 181 171 168 167 164 163 162 160 158 157
288 284 278 271 264 260 259 259 259 256 251 247 248 251 258 265 271 277 282 286 287 287 283 272 252 234 230 233 237 242 248 257 266 274 281 286 289 287 281 272 260 247 223 187 157 152 195 208 205 203 193 184 176 163 153 154 157 157 155 152 151 149 147
282 275 270 264 255 253 259 268 271 268 265 264 262 261 263 266 270 277 284 290 291 288 282 269 253 241 236 237 241 246 252 259 267 274 279 282 282 276 263 243 220 199 177 155 145 170 194 198 195 189 180 173 164 151 144 145 149 153 150 143 146 143 138
273 267 265 258 250 252 265 277 282 280 276 273 270 269 268 267 272 279 286 306 320 312 292 277 263 252 247 245 247 251 256 261 266 272 276 274 265 250 229 201 185 170 156 156 172 184 185 187 186 178 166 158 147 136 133 136 140 144 138 127 129 121 97
277 269 265 259 259 265 275 283 287 280 271 273 285 291 282 272 276 282 283 319 340 336 317 294 275 260 254 251 251 253 256 259 262 262 257 242 223 211 190 174 170 158 153 164 176 175 173 171 168 159 151 146 139 130 135 136 132 130 122 109 96 78 66
287 274 261 259 264 267 272 281 280 260 257 284 292 287 281 274 273 279 283 304 327 333 325 309 287 267 257 253 251 251 251 248 241 230 217 199 186 185 182 175 166 157 160 170 171 166 164 161 156 153 149 146 142 140 142 138 129 122 110 97 92 79 67
246 252 249 252 259 263 269 278 265 243 266 303 290 267 264 268 270 273 281 293 311 323 322 311 292 271 259 253 247 240 231 223 215 207 198 186 179 181 180 175 165 157 158 167 167 165 162 158 155 153 148 143 144 143 140 131 124 117 105 89 65 36 30
238 247 254 257 258 257 263 273 261 247 274 314 296 251 251 260 264 269 279 288 302 315 315 307 292 273 258 250 241 231 220 211 204 196 189 185 184 181 173 165 163 160 162 166 168 166 163 154 147 139 133 131 131 130 128 123 114 105 94 70 28 10 10
245 249 255 259 260 258 261 269 272 267 266 273 259 257 262 264 265 272 279 286 298 307 306 299 286 266 253 243 232 224 216 207 200 194 189 187 185 179 170 166 166 166 168 169 165 158 150 141 133 129 128 128 126 122 116 111 102 85 66 48 27 12 2
250 248 250 254 257 259 262 267 272 273 270 261 255 261 267 269 271 276 280 285 291 293 289 285 273 256 246 236 226 220 216 208 199 194 191 189 187 182 174 169 167 166 165 164 156 145 140 138 136 135 131 126 121 116 110 103 92 72 54 42 30 16 3
255 251 250 252 254 257 261 265 268 271 272 271 266 264 266 267 269 272 275 279 280 277 272 266 255 245 239 231 224 219 214 208 201 197 196 194 191 184 174 170 168 163 158 157 155 147 143 143 139 133 126 119 113 112 108 97 80 64 50 37 26 19 9